timestamp,wind_dir_avg,wind_spd_avg,wind_spd_max_dir,wind_spd_gust,battery_voltage,lat,long
2021-03-05 00:04:01+00:00,217.0,10.15,224.0,11.91,12.49,47.59359,-54.27349
2021-03-05 00:14:01+00:00,214.0,11.04,218.0,12.38,12.49,47.59359,-54.27349
2021-03-05 00:24:01+00:00,214.0,10.17,220.0,11.79,12.49,47.59359,-54.27349
2021-03-05 00:34:01+00:00,214.0,10.4,212.0,11.67,12.49,47.59359,-54.27349
2021-03-05 00:44:01+00:00,218.0,11.07,206.0,14.0,12.49,47.59359,-54.27349
2021-03-05 00:54:01+00:00,219.0,11.43,222.0,13.2,12.49,47.59359,-54.27349
2021-03-05 01:04:01+00:00,214.0,10.68,216.0,12.38,12.49,47.59359,-54.27349
2021-03-05 01:14:01+00:00,220.0,11.36,226.0,14.77,12.41,47.59359,-54.27349
2021-03-05 01:24:01+00:00,219.0,9.89,222.0,12.13,12.41,47.59359,-54.27349
2021-03-05 01:34:01+00:00,221.0,10.95,218.0,12.99,12.41,47.59359,-54.27349
2021-03-05 01:44:01+00:00,219.0,10.27,228.0,11.45,12.41,47.59359,-54.27349
2021-03-05 01:54:01+00:00,218.0,10.25,221.0,11.83,12.41,47.59359,-54.27349
2021-03-05 02:04:01+00:00,217.0,10.29,213.0,14.46,12.41,47.59359,-54.27349
2021-03-05 02:14:01+00:00,226.0,10.2,228.0,12.44,12.41,47.59359,-54.27349
2021-03-05 02:24:01+00:00,214.0,11.46,214.0,13.23,12.41,47.59359,-54.27349
2021-03-05 02:34:01+00:00,213.0,10.92,210.0,14.4,12.41,47.59359,-54.27349
2021-03-05 02:44:01+00:00,219.0,11.24,214.0,12.26,12.41,47.59359,-54.27349
2021-03-05 02:54:01+00:00,221.0,11.29,217.0,12.8,12.41,47.59359,-54.27349
2021-03-05 03:04:01+00:00,219.0,9.17,220.0,10.51,12.41,47.59359,-54.27349
2021-03-05 03:14:01+00:00,217.0,10.47,217.0,12.28,12.41,47.59359,-54.27349
2021-03-05 03:24:01+00:00,217.0,11.73,217.0,13.07,12.41,47.59359,-54.27349
2021-03-05 03:34:01+00:00,213.0,12.13,211.0,14.06,12.41,47.59359,-54.27349
2021-03-05 03:44:01+00:00,217.0,11.05,214.0,13.26,12.41,47.59359,-54.27349
2021-03-05 03:54:01+00:00,217.0,10.87,219.0,12.18,12.41,47.59359,-54.27349
2021-03-05 04:04:01+00:00,212.0,12.13,205.0,14.52,12.41,47.59359,-54.27349
2021-03-05 04:14:01+00:00,221.0,10.87,223.0,12.34,12.41,47.59359,-54.27349
2021-03-05 04:24:01+00:00,214.0,10.8,217.0,12.12,12.41,47.59359,-54.27349
2021-03-05 04:34:01+00:00,219.0,11.26,216.0,12.92,12.41,47.59359,-54.27349
2021-03-05 04:44:01+00:00,217.0,10.98,212.0,12.47,12.41,47.59359,-54.27349
2021-03-05 04:54:01+00:00,210.0,10.09,215.0,11.52,12.41,47.59359,-54.27349
2021-03-05 05:04:01+00:00,211.0,13.77,211.0,15.32,12.41,47.59359,-54.27349
2021-03-05 05:14:01+00:00,216.0,10.48,226.0,12.09,12.41,47.59359,-54.27349
2021-03-05 05:24:01+00:00,211.0,10.09,214.0,11.47,12.41,47.59359,-54.27349
2021-03-05 05:34:01+00:00,215.0,11.62,213.0,14.03,12.41,47.59359,-54.27349
2021-03-05 05:44:01+00:00,219.0,10.99,216.0,13.3,12.41,47.59359,-54.27349
2021-03-05 05:54:01+00:00,213.0,10.58,210.0,11.96,12.41,47.59359,-54.27349
2021-03-05 06:04:01+00:00,215.0,10.76,212.0,13.23,12.41,47.59359,-54.27349
2021-03-05 06:14:01+00:00,212.0,10.66,214.0,11.96,12.41,47.59359,-54.27349
2021-03-05 06:24:01+00:00,220.0,12.59,225.0,15.99,12.41,47.59359,-54.27349
2021-03-05 06:34:01+00:00,223.0,11.1,221.0,12.87,12.41,47.59359,-54.27349
2021-03-05 06:44:01+00:00,225.0,9.63,221.0,11.41,12.41,47.59359,-54.27349
2021-03-05 06:54:01+00:00,220.0,8.65,219.0,9.88,12.41,47.59359,-54.27349
2021-03-05 07:04:01+00:00,227.0,10.15,226.0,11.54,12.41,47.59359,-54.27349
2021-03-05 07:14:01+00:00,213.0,9.77,207.0,12.24,12.33,47.59359,-54.27349
2021-03-05 07:24:01+00:00,216.0,12.05,225.0,14.18,12.33,47.59359,-54.27349
2021-03-05 07:34:01+00:00,218.0,10.51,228.0,12.72,12.33,47.59359,-54.27349
2021-03-05 07:44:01+00:00,216.0,10.04,215.0,11.48,12.33,47.59359,-54.27349
2021-03-05 07:54:01+00:00,211.0,10.36,210.0,12.2,12.33,47.59359,-54.27349
2021-03-05 08:04:01+00:00,209.0,9.0,213.0,10.54,12.33,47.59359,-54.27349
2021-03-05 08:14:01+00:00,208.0,9.22,210.0,10.7,12.33,47.59359,-54.27349
2021-03-05 08:24:01+00:00,204.0,9.57,202.0,10.66,12.33,47.59359,-54.27349
2021-03-05 08:34:01+00:00,204.0,10.4,202.0,11.37,12.33,47.59359,-54.27349
2021-03-05 08:44:01+00:00,208.0,11.78,212.0,13.68,12.33,47.59359,-54.27349
2021-03-05 08:54:01+00:00,216.0,10.27,211.0,11.76,12.33,47.59359,-54.27349
2021-03-05 09:04:01+00:00,204.0,11.74,206.0,13.87,12.33,47.59359,-54.27349
2021-03-05 09:14:01+00:00,213.0,12.39,204.0,14.28,12.33,47.59359,-54.27349
2021-03-05 09:24:01+00:00,213.0,11.01,213.0,12.58,12.33,47.59359,-54.27349
2021-03-05 09:34:01+00:00,215.0,10.55,208.0,12.07,12.33,47.59359,-54.27349
2021-03-05 09:44:01+00:00,206.0,12.56,208.0,14.29,12.33,47.59359,-54.27349
2021-03-05 09:54:01+00:00,208.0,12.93,205.0,14.82,12.33,47.59359,-54.27349
2021-03-05 10:04:01+00:00,215.0,11.98,209.0,13.98,12.33,47.59359,-54.27349
2021-03-05 10:14:01+00:00,218.0,12.15,213.0,14.02,12.25,47.59359,-54.27349
2021-03-05 10:24:01+00:00,212.0,11.21,214.0,12.27,12.25,47.59359,-54.27349
2021-03-05 10:34:01+00:00,221.0,11.15,216.0,13.1,12.25,47.59359,-54.27349
2021-03-05 10:44:01+00:00,222.0,11.62,215.0,13.15,12.25,47.59359,-54.27349
2021-03-05 10:54:01+00:00,219.0,10.67,220.0,12.69,12.25,47.59359,-54.27349
2021-03-05 11:04:01+00:00,218.0,9.39,223.0,11.34,12.25,47.59359,-54.27349
2021-03-05 11:14:01+00:00,211.0,11.05,211.0,13.24,12.33,47.59359,-54.27349
2021-03-05 11:24:01+00:00,211.0,9.23,212.0,10.81,12.33,47.59359,-54.27349
2021-03-05 11:34:01+00:00,213.0,12.2,214.0,13.65,12.33,47.59359,-54.27349
2021-03-05 11:44:01+00:00,214.0,12.09,214.0,13.82,12.33,47.59359,-54.27349
2021-03-05 11:54:01+00:00,221.0,11.09,223.0,12.3,12.33,47.59359,-54.27349
2021-03-05 12:04:01+00:00,226.0,10.51,226.0,12.13,12.33,47.59359,-54.27349
2021-03-05 12:14:01+00:00,222.0,11.16,218.0,12.35,12.57,47.59359,-54.27349
2021-03-05 12:24:01+00:00,217.0,11.58,214.0,13.58,12.57,47.59359,-54.27349
2021-03-05 12:34:01+00:00,225.0,10.35,227.0,13.47,12.57,47.59359,-54.27349
2021-03-05 12:44:01+00:00,219.0,12.2,227.0,15.41,12.57,47.59359,-54.27349
2021-03-05 12:54:01+00:00,218.0,10.22,222.0,12.0,12.57,47.59359,-54.27349
2021-03-05 13:04:01+00:00,220.0,10.89,225.0,13.39,12.57,47.59359,-54.27349
2021-03-05 13:14:01+00:00,214.0,11.64,213.0,13.35,13.29,47.59359,-54.27349
2021-03-05 13:24:01+00:00,222.0,10.61,220.0,11.69,13.29,47.59359,-54.27349
2021-03-05 13:34:01+00:00,215.0,12.16,214.0,13.83,13.29,47.59359,-54.27349
2021-03-05 13:44:01+00:00,214.0,12.46,211.0,14.34,13.29,47.59359,-54.27349
2021-03-05 13:54:01+00:00,215.0,11.45,214.0,13.0,13.29,47.59359,-54.27349
2021-03-05 14:04:01+00:00,215.0,10.91,219.0,11.99,13.29,47.59359,-54.27349
2021-03-05 14:14:01+00:00,209.0,11.06,211.0,13.58,13.6,47.59359,-54.27349
2021-03-05 14:24:01+00:00,211.0,12.38,211.0,14.17,13.6,47.59359,-54.27349
2021-03-05 14:34:01+00:00,210.0,11.85,214.0,13.18,13.6,47.59359,-54.27349
2021-03-05 14:44:01+00:00,214.0,12.52,207.0,14.6,13.6,47.59359,-54.27349
2021-03-05 14:54:01+00:00,218.0,12.0,227.0,14.05,13.6,47.59359,-54.27349
2021-03-05 15:04:01+00:00,220.0,11.18,219.0,12.79,13.6,47.59359,-54.27349
2021-03-05 15:14:01+00:00,214.0,10.69,220.0,12.03,13.76,47.59359,-54.27349
2021-03-05 15:24:01+00:00,221.0,8.65,222.0,11.25,13.76,47.59359,-54.27349
2021-03-05 15:34:01+00:00,220.0,8.81,228.0,10.75,13.76,47.59359,-54.27349
2021-03-05 15:44:01+00:00,212.0,9.75,209.0,11.09,13.76,47.59359,-54.27349
2021-03-05 15:54:01+00:00,209.0,9.78,209.0,11.33,13.76,47.59359,-54.27349
2021-03-05 16:04:01+00:00,213.0,9.91,214.0,11.24,13.76,47.59359,-54.27349
2021-03-05 16:14:01+00:00,213.0,9.17,216.0,10.65,13.84,47.59359,-54.27349
2021-03-05 16:24:01+00:00,208.0,8.65,209.0,10.24,13.84,47.59359,-54.27349
2021-03-05 16:34:01+00:00,209.0,9.67,205.0,11.34,13.84,47.59359,-54.27349
2021-03-05 16:44:01+00:00,212.0,8.51,213.0,10.33,13.84,47.59359,-54.27349
2021-03-05 16:54:01+00:00,207.0,8.72,209.0,10.14,13.84,47.59359,-54.27349
2021-03-05 17:04:01+00:00,191.0,9.05,197.0,10.82,13.84,47.59359,-54.27349
2021-03-05 17:14:01+00:00,194.0,7.85,203.0,9.3,13.68,47.59359,-54.27349
2021-03-05 17:24:01+00:00,203.0,8.05,203.0,9.68,13.68,47.59359,-54.27349
2021-03-05 17:34:01+00:00,210.0,9.05,213.0,10.29,13.68,47.59359,-54.27349
2021-03-05 17:44:01+00:00,208.0,8.97,206.0,10.56,13.68,47.59359,-54.27349
2021-03-05 17:54:01+00:00,209.0,9.11,214.0,10.78,13.68,47.59359,-54.27349
2021-03-05 18:04:01+00:00,214.0,8.95,215.0,10.05,13.68,47.59359,-54.27349
2021-03-05 18:14:01+00:00,212.0,8.68,209.0,10.71,13.84,47.59359,-54.27349
2021-03-05 18:24:01+00:00,211.0,8.24,210.0,9.8,13.84,47.59359,-54.27349
2021-03-05 18:34:01+00:00,212.0,8.47,209.0,10.78,13.84,47.59359,-54.27349
2021-03-05 18:44:01+00:00,211.0,8.04,215.0,8.95,13.84,47.59359,-54.27349
2021-03-05 18:54:01+00:00,209.0,8.69,208.0,10.16,13.84,47.59359,-54.27349
2021-03-05 19:04:01+00:00,206.0,7.92,207.0,8.98,13.84,47.59359,-54.27349
2021-03-05 19:14:01+00:00,182.0,7.16,198.0,8.53,13.84,47.59359,-54.27349
2021-03-05 19:24:01+00:00,195.0,7.38,201.0,8.62,13.84,47.59359,-54.27349
2021-03-05 19:34:01+00:00,203.0,8.38,205.0,10.03,13.84,47.59359,-54.27349
2021-03-05 19:44:01+00:00,194.0,8.28,205.0,9.51,13.84,47.59359,-54.27349
2021-03-05 19:54:01+00:00,206.0,7.96,210.0,9.66,13.84,47.59359,-54.27349
2021-03-05 20:04:01+00:00,202.0,7.09,208.0,8.44,13.84,47.59359,-54.27349
2021-03-05 20:14:01+00:00,207.0,6.2,212.0,7.23,13.76,47.59359,-54.27349
2021-03-05 20:24:01+00:00,212.0,8.55,211.0,9.69,13.76,47.59359,-54.27349
2021-03-05 20:34:01+00:00,201.0,7.17,208.0,9.02,13.76,47.59359,-54.27349
2021-03-05 20:44:01+00:00,204.0,8.39,206.0,9.85,13.76,47.59359,-54.27349
2021-03-05 20:54:01+00:00,201.0,9.83,209.0,11.26,13.76,47.59359,-54.27349
2021-03-05 21:04:01+00:00,201.0,10.31,198.0,12.34,13.76,47.59359,-54.27349
2021-03-05 21:14:01+00:00,208.0,10.7,210.0,12.23,13.13,47.59359,-54.27349
2021-03-05 21:24:01+00:00,213.0,11.76,213.0,13.8,13.13,47.59359,-54.27349
2021-03-05 21:34:01+00:00,212.0,10.18,205.0,11.88,13.13,47.59359,-54.27349
2021-03-05 21:44:01+00:00,214.0,10.72,215.0,12.44,13.13,47.59359,-54.27349
2021-03-05 21:54:01+00:00,212.0,10.04,215.0,11.16,13.13,47.59359,-54.27349
2021-03-05 22:04:01+00:00,214.0,10.09,218.0,11.23,13.13,47.59359,-54.27349
2021-03-05 22:14:01+00:00,214.0,8.92,215.0,10.39,12.65,47.59359,-54.27349
2021-03-05 22:24:01+00:00,217.0,7.66,214.0,8.51,12.65,47.59359,-54.27349
2021-03-05 22:34:01+00:00,216.0,8.0,216.0,9.69,12.65,47.59359,-54.27349
2021-03-05 22:44:01+00:00,213.0,8.35,215.0,9.4,12.65,47.59359,-54.27349
2021-03-05 22:54:01+00:00,213.0,7.43,212.0,8.49,12.65,47.59359,-54.27349
2021-03-05 23:04:01+00:00,192.0,5.83,213.0,7.09,12.65,47.59359,-54.27349
2021-03-05 23:14:01+00:00,188.0,7.46,206.0,8.85,12.49,47.59359,-54.27349
2021-03-05 23:24:01+00:00,170.0,6.62,166.0,7.14,12.49,47.59359,-54.27349
2021-03-05 23:34:01+00:00,167.0,5.58,166.0,7.42,12.49,47.59359,-54.27349
2021-03-05 23:44:01+00:00,186.0,5.1,214.0,6.05,12.49,47.59359,-54.27349
2021-03-05 23:54:01+00:00,209.0,6.82,212.0,7.9,12.49,47.59359,-54.27349
